When you browse on this site, cookies collect data to enhance your experience and personalize the content and advertising you see.
Visit our Privacy Policy to learn more. By continuing to use the site, you agree to this use of cookies and data.
  • In Österreich
  • Länderverzeichnis
  • Für 7 Tage
  • Wassertemperatur
  • Wetterkarte
  • News
  • Widgets
  • user-avatar
    Anmelden

    Stündliche Wetter Warud

    Heute, 26 Mai, Dienstag

    Zeit Temperatur Niederschläge Wind Luftdruck Luftfeuchtigkeit
    00:00 +38°C° 0 mm 4 m/S 720 mmHg 15%
    01:00 +39°C° 0 mm 5 m/S 720 mmHg 15%
    02:00 +39°C° 0 mm 6 m/S 719 mmHg 15%
    03:00 +38°C° 0 mm 6 m/S 720 mmHg 16%
    04:00 +38°C° 0 mm 6 m/S 720 mmHg 17%
    05:00 +36°C° 0 mm 7 m/S 720 mmHg 18%
    06:00 +39°C° 0 mm 6 m/S 721 mmHg 17%
    07:00 +40°C° 0 mm 5 m/S 722 mmHg 15%
    08:00 +42°C° 0 mm 5 m/S 722 mmHg 14%
    09:00 +45°C° 0 mm 5 m/S 722 mmHg 13%
    10:00 +45°C° 0 mm 4 m/S 722 mmHg 11%
    11:00 +48°C° 0 mm 4 m/S 722 mmHg 10%
    12:00 +49°C° 0 mm 5 m/S 721 mmHg 9%
    13:00 +50°C° 0 mm 5 m/S 720 mmHg 9%
    14:00 +52°C° 0 mm 6 m/S 719 mmHg 8%
    15:00 +51°C° 0 mm 6 m/S 719 mmHg 9%
    16:00 +49°C° 0 mm 6 m/S 719 mmHg 9%
    17:00 +49°C° 0 mm 6 m/S 718 mmHg 10%
    18:00 +47°C° 0 mm 6 m/S 719 mmHg 11%
    19:00 +45°C° 0 mm 5 m/S 719 mmHg 13%
    20:00 +43°C° 0 mm 5 m/S 720 mmHg 14%
    21:00 +42°C° 0 mm 5 m/S 720 mmHg 14%
    22:00 +41°C° 0 mm 5 m/S 720 mmHg 14%
    23:00 +40°C° 0 mm 5 m/S 720 mmHg 14%

    Morgen, 27 Mai, Mittwoch

    Zeit Temperatur Niederschläge Wind Luftdruck Luftfeuchtigkeit
    00:00 +39°C° 0 mm 6 m/S 719 mmHg 14%
    01:00 +39°C° 0 mm 6 m/S 719 mmHg 14%
    02:00 +38°C° 0 mm 6 m/S 719 mmHg 14%
    03:00 +36°C° 0 mm 6 m/S 719 mmHg 16%
    04:00 +36°C° 0 mm 7 m/S 719 mmHg 17%
    05:00 +35°C° 0 mm 8 m/S 719 mmHg 19%
    06:00 +38°C° 0 mm 7 m/S 720 mmHg 19%
    07:00 +40°C° 0 mm 7 m/S 721 mmHg 18%
    08:00 +43°C° 0 mm 7 m/S 721 mmHg 18%
    09:00 +45°C° 0 mm 7 m/S 721 mmHg 15%
    10:00 +47°C° 0 mm 7 m/S 721 mmHg 12%
    11:00 +50°C° 0 mm 7 m/S 721 mmHg 10%
    12:00 +50°C° 0 mm 7 m/S 720 mmHg 9%
    13:00 +51°C° 0 mm 7 m/S 719 mmHg 9%
    14:00 +51°C° 0 mm 7 m/S 718 mmHg 9%
    15:00 +50°C° 0 mm 7 m/S 718 mmHg 10%
    16:00 +50°C° 0 mm 7 m/S 718 mmHg 10%
    17:00 +49°C° 0 mm 7 m/S 717 mmHg 10%
    18:00 +46°C° 0 mm 6 m/S 718 mmHg 11%
    19:00 +43°C° 0 mm 5 m/S 718 mmHg 12%
    20:00 +41°C° 0 mm 4 m/S 718 mmHg 13%
    21:00 +40°C° 0 mm 4 m/S 718 mmHg 14%
    22:00 +38°C° 0 mm 4 m/S 719 mmHg 15%
    23:00 +38°C° 0 mm 4 m/S 719 mmHg 15%

    übermorgen, 28 Mai, Donnerstag

    Zeit Temperatur Niederschläge Wind Luftdruck Luftfeuchtigkeit
    00:00 +37°C° 0 mm 5 m/S 718 mmHg 18%
    01:00 +36°C° 0 mm 5 m/S 718 mmHg 20%
    02:00 +35°C° 0 mm 5 m/S 718 mmHg 23%
    03:00 +35°C° 0 mm 5 m/S 718 mmHg 28%
    04:00 +34°C° 0 mm 5 m/S 718 mmHg 32%
    05:00 +33°C° 0 mm 5 m/S 718 mmHg 37%
    06:00 +34°C° 0 mm 6 m/S 719 mmHg 35%
    07:00 +36°C° 0 mm 7 m/S 720 mmHg 34%
    08:00 +38°C° 0 mm 8 m/S 721 mmHg 32%
    09:00 +41°C° 0 mm 8 m/S 720 mmHg 27%
    10:00 +44°C° 0 mm 7 m/S 720 mmHg 21%
    11:00 +46°C° 0 mm 7 m/S 720 mmHg 16%
    12:00 +47°C° 0 mm 7 m/S 719 mmHg 14%
    13:00 +49°C° 0 mm 7 m/S 719 mmHg 12%
    14:00 +50°C° 0 mm 7 m/S 718 mmHg 11%
    15:00 +48°C° 0 mm 6 m/S 718 mmHg 11%
    16:00 +48°C° 0 mm 6 m/S 717 mmHg 11%
    17:00 +47°C° 0 mm 6 m/S 717 mmHg 11%
    18:00 +45°C° 0 mm 5 m/S 717 mmHg 13%
    19:00 +42°C° 0 mm 4 m/S 718 mmHg 14%
    20:00 +39°C° 0 mm 3 m/S 718 mmHg 16%
    21:00 +38°C° 0 mm 3 m/S 718 mmHg 17%
    22:00 +37°C° 0 mm 3 m/S 718 mmHg 18%
    23:00 +37°C° 0 mm 4 m/S 719 mmHg 19%

    29 Mai, Freitag

    Zeit Temperatur Niederschläge Wind Luftdruck Luftfeuchtigkeit
    00:00 +36°C° 0 mm 4 m/S 718 mmHg 23%
    01:00 +36°C° 0 mm 5 m/S 718 mmHg 26%
    02:00 +35°C° 0 mm 5 m/S 718 mmHg 29%
    03:00 +34°C° 0 mm 5 m/S 718 mmHg 34%
    04:00 +33°C° 0 mm 5 m/S 719 mmHg 39%
    05:00 +32°C° 0 mm 5 m/S 719 mmHg 44%
    06:00 +34°C° 0 mm 6 m/S 719 mmHg 42%
    07:00 +35°C° 0 mm 6 m/S 720 mmHg 40%
    08:00 +38°C° 0 mm 7 m/S 721 mmHg 38%
    09:00 +40°C° 0 mm 6 m/S 721 mmHg 32%
    10:00 +42°C° 0 mm 6 m/S 721 mmHg 26%
    11:00 +46°C° 0 mm 6 m/S 721 mmHg 19%
    12:00 +47°C° 0 mm 6 m/S 720 mmHg 17%
    13:00 +47°C° 0 mm 6 m/S 719 mmHg 15%
    14:00 +48°C° 0 mm 6 m/S 719 mmHg 12%
    15:00 +48°C° 0 mm 6 m/S 718 mmHg 12%
    16:00 +47°C° 0 mm 6 m/S 718 mmHg 12%
    17:00 +47°C° 0 mm 6 m/S 718 mmHg 12%
    18:00 +45°C° 0 mm 5 m/S 718 mmHg 14%
    19:00 +42°C° 0 mm 4 m/S 718 mmHg 16%
    20:00 +39°C° 0 mm 3 m/S 719 mmHg 17%
    21:00 +38°C° 0 mm 4 m/S 719 mmHg 19%
    22:00 +37°C° 0 mm 5 m/S 719 mmHg 20%
    23:00 +37°C° 0 mm 5 m/S 720 mmHg 22%

    30 Mai, Samstag

    Zeit Temperatur Niederschläge Wind Luftdruck Luftfeuchtigkeit
    00:00 +36°C° 0 mm 5 m/S 720 mmHg 26%
    01:00 +35°C° 0 mm 5 m/S 719 mmHg 29%
    02:00 +35°C° 0 mm 5 m/S 719 mmHg 33%
    03:00 +34°C° 0 mm 5 m/S 720 mmHg 38%
    04:00 +33°C° 0 mm 6 m/S 720 mmHg 42%
    05:00 +32°C° 0 mm 6 m/S 720 mmHg 47%
    06:00 +34°C° 0 mm 6 m/S 721 mmHg 45%
    07:00 +35°C° 0 mm 6 m/S 722 mmHg 42%
    08:00 +38°C° 0 mm 7 m/S 722 mmHg 40%
    09:00 +40°C° 0 mm 6 m/S 722 mmHg 33%
    10:00 +42°C° 0 mm 5 m/S 722 mmHg 26%
    11:00 +46°C° 0 mm 5 m/S 722 mmHg 19%
    12:00 +46°C° 0 mm 5 m/S 721 mmHg 17%
    13:00 +47°C° 0 mm 6 m/S 721 mmHg 16%
    14:00 +47°C° 0 mm 6 m/S 720 mmHg 14%
    15:00 +47°C° 0 mm 6 m/S 720 mmHg 14%
    16:00 +47°C° 0 mm 5 m/S 719 mmHg 14%
    17:00 +46°C° 0 mm 5 m/S 719 mmHg 15%
    18:00 +44°C° 0 mm 4 m/S 719 mmHg 16%
    19:00 +42°C° 0 mm 4 m/S 720 mmHg 18%
    20:00 +40°C° 0 mm 3 m/S 720 mmHg 19%
    21:00 +39°C° 0 mm 3 m/S 720 mmHg 20%
    22:00 +38°C° 0 mm 3 m/S 721 mmHg 21%
    23:00 +37°C° 0 mm 2 m/S 721 mmHg 22%

    31 Mai, Sonntag

    Zeit Temperatur Niederschläge Wind Luftdruck Luftfeuchtigkeit
    00:00 +36°C° 0 mm 3 m/S 721 mmHg 23%
    01:00 +36°C° 0 mm 3 m/S 721 mmHg 24%
    02:00 +35°C° 0 mm 3 m/S 720 mmHg 25%
    03:00 +35°C° 0 mm 4 m/S 721 mmHg 26%
    04:00 +34°C° 0 mm 4 m/S 721 mmHg 28%
    05:00 +34°C° 0 mm 5 m/S 722 mmHg 29%
    06:00 +35°C° 0 mm 6 m/S 722 mmHg 31%
    07:00 +36°C° 0 mm 6 m/S 723 mmHg 33%
    08:00 +38°C° 0 mm 7 m/S 724 mmHg 36%
    09:00 +40°C° 0 mm 6 m/S 724 mmHg 31%
    10:00 +41°C° 0 mm 6 m/S 723 mmHg 26%
    11:00 +43°C° 0 mm 5 m/S 723 mmHg 22%
    12:00 +45°C° 0 mm 5 m/S 723 mmHg 21%
    13:00 +44°C° 0 mm 4 m/S 722 mmHg 20%
    14:00 +45°C° 0 mm 4 m/S 721 mmHg 19%
    15:00 +44°C° 0.2 mm 4 m/S 721 mmHg 20%
    16:00 +43°C° 0.2 mm 3 m/S 720 mmHg 21%
    17:00 +41°C° 0.2 mm 2 m/S 720 mmHg 23%
    18:00 +40°C° 0 mm 2 m/S 720 mmHg 25%
    19:00 +38°C° 0 mm 2 m/S 720 mmHg 27%
    20:00 +36°C° 0 mm 1 m/S 720 mmHg 29%
    21:00 +36°C° 0 mm 1 m/S 721 mmHg 29%
    22:00 +36°C° 0 mm 1 m/S 721 mmHg 29%
    23:00 +36°C° 0 mm 1 m/S 721 mmHg 29%
    Mehr zeigen